Retour au catalogue

IRIDIUM 33 DEB

ActifPO
NORAD 36490·DEBRIS·🇺🇸 United States

Lancé Sep 14, 1997 depuis Baikonur Cosmodrome

Loading…

Prochains Passages (prochaines 24 heures)

TLE

FraisSource: Space-Track

Époque: Sep 13, 2026, 10:02 UTC

1 36490U 97051WG  26256.41841113  .00007253  00000-0  90802-3 0  9997
2 36490  86.3588 245.8278 0004331 123.2967 236.8670 14.82138565905468

Suivez IRIDIUM 33 DEB en temps réel avec AllMySat

Download on the App Store